Preview of NWS' New Version of Forecast
This preview is not operational and should not be used for support decisions.

Regional Weather Roundup (RWR)

Issued by National Weather Service (NWS)

                            
000
ASUS43 KTOP 211708
RWRKS 

WEATHER ROUNDUP FOR KANSAS
NATIONAL WEATHER SERVICE GOODLAND KS
1200 PM CDT SAT SEP 21 2019

NOTE:  "FAIR" INDICATES FEW OR NO CLOUDS BELOW 12,000 FEET WITH NO
SIGNIFICANT WEATHER AND/OR OBSTRUCTIONS TO VISIBILITY.

KSZ001>006-013>018-027>032-041>047-211800-
NORTHWEST KANSAS
  
CITY           SKY/WX    TMP DP  RH WIND       PRES   REMARKS
GOODLAND       SUNNY     74  50  42 N13       29.98F                  
HAYS           MOSUNNY   82  67  60 SW22      29.88S                  
HILL CITY      SUNNY     81  63  54 W8        29.88S                  
RUSSELL        CLOUDY    82  67  60 SW20G31   29.87R                  
$$

KSZ061>065-074>080-084>089-211800-
SOUTHWEST KANSAS
  
CITY           SKY/WX    TMP DP  RH WIND       PRES   REMARKS
DODGE CITY     PTSUNNY   83  66  56 SW21G35   29.93S                  
ELKHART        SUNNY     84  64  50 SW17G25   29.96S                  
GARDEN CITY    MOSUNNY   79  64  60 SW13G25   29.93F                  
GREAT BEND     MOSUNNY   83  68  60 SW30G37   29.89F                  
LIBERAL        MOSUNNY   82  66  58 S21G30    29.95F                  
PRATT          MOSUNNY   82  62  50 S20G25    29.95F                  
$$

KSZ066>073-081>083-090>101-211800-
SOUTHEAST KANSAS
  
CITY           SKY/WX    TMP DP  RH WIND       PRES   REMARKS
CHANUTE        HVY RAIN  73  70  90 S22G36    30.02F FOG              
COFFEYVILLE    CLOUDY    73  71  93 SW10G22   30.03S                  
HUTCHINSON     MOSUNNY   78  68  71 S18G26    29.93F                  
MEDICINE LODGE   N/A     78  70  76 S8        29.94F                  
NEWTON         CLOUDY    78  70  76 S22G28    29.96R                  
PARSONS        LGT RAIN  72  71  97 S12G23    30.04  FOG              
WICHITA INTL   CLOUDY    79  70  74 S16G30    29.96R                  
WICHITA JABRA  PTSUNNY   78  71  79 S20G25    29.97R                  
WICHITA MCCONL PTSUNNY   79  69  71 SE20G26   29.97R                  
WINFIELD       CLOUDY    77  71  82 S14G25    29.99S                  
$$

KSZ007>012-019>026-033>040-048>060-102>105-211800-
NORTHEAST KANSAS
  
CITY           SKY/WX    TMP DP  RH WIND       PRES   REMARKS
CONCORDIA      CLOUDY    81  68  64 SW20G28   29.85S                  
EMPORIA        CLOUDY    75  73  93 S21G37    29.96F                  
LAWRENCE       CLOUDY    76  72  87 S15G24    29.95S                  
MANHATTAN      PTSUNNY   82  70  66 SW17G30   29.89F                  
MARYSVILLE     CLOUDY    77  70  78 SW14G20   29.87F                  
OLATHE IND     LGT RAIN  76  71  85 S20G36    29.99S                  
OLATHE EXE     CLOUDY    75  71  87 S16G26    29.99S                  
SALINA         SUNNY     83  68  60 SW22G38   29.87S                  
TOPEKA BILLARD CLOUDY    78  71  79 S15G32    29.93F                  
TOPEKA FORBES  CLOUDY    77  71  82 S21G30    29.93F                  
$$